Other Public Products
Issued by NWS Grand Forks, ND

Home | Current Version | Previous Version | Graphics & Text | Print | Product List | Glossary On
Versions: 1 2 3 4 5 6 7 8 9 10 11 12 13 14 15 16 17 18 19 20 21 22 23 24 25 26 27 28 29 30 31 32 33 34 35 36 37 38 39 40 41 42 43 44 45 46 47 48 49 50
000
FPUS83 KFGF 290231
OPUFGF
PRAIRIE TO PINES WEATHER ROUNDUP
NATIONAL WEATHER SERVICE EASTERN NORTH DAKOTA/GRAND FORKS ND
900 PM CDT THU AUG 28 2014

 **SATELLITE DATA USED TO AUGMENT SKY COVER AT AUTOMATED STATIONS**
 *****  WEATHER ACROSS EASTERN NORTH DAKOTA  *****

CITY           SKY/WX    TMP DP  RH WIND       PRES   REMARKS
GRAND FORKS    CLOUDY    69  64  84 S14       29.85S
GRAND FORKS AF CLOUDY    69  69  99 S9        29.86S
GRAND CITY NWS   N/A     66 N/A N/A S13         N/A
BUXTON           N/A     67  67  98 SE10        N/A
DEVILS LAKE    CLOUDY    70  63  78 S12       29.82S
FARGO          CLOUDY    67  64  90 SE8       29.87S
WAHPETON ARPT  CLOUDY    64  61  88 SE6       29.88S
$$

 *****  WEATHER ACROSS CENTRAL AND WESTERN NORTH DAKOTA  *****

CITY           SKY/WX    TMP DP  RH WIND       PRES   REMARKS
JAMESTOWN      CLOUDY    67  65  93 SE7       29.86S
BISMARCK       MOCLDY    67  65  93 S7        29.85S
MINOT          PTCLDY    74  65  73 SE8       29.77S
MINOT AFB      PTCLDY    72  63  74 S10       29.75S
GARRISON         N/A     71  68  90 SE6       29.81S
WILLISTON      CLEAR     76  51  41 W7        29.77R
DICKINSON      PTCLDY    69  55  60 SE10      29.82F
HETTINGER      PTCLDY    70  59  68 SE5       29.88R
$$

 *****  OTHER OBSERVATIONS NORTHEAST NORTH DAKOTA  *****

CITY           SKY/WX    TMP DP  RH WIND       PRES   REMARKS
WALHALLA         N/A     72  72 100 S7        29.81R
LANGDON        FAIR      68  64  88 S10       29.83R
CAVALIER       FAIR      68  66  94 S13       29.81S
GRAFTON        CLOUDY    68  66  94 S13       29.83S
CANDO          FAIR      68  66  94 S8        29.83R
FORT TOTTEN    NOT AVBL
ROLLA          FAIR      68  68 100 S8        29.82S
RUGBY          FAIR      68  66  94 S8        29.80S
 ***** THE ABOVE OBSERVATIONS ARE NON NWS ARE NOT QUALITY
        CONTROLLED AND MAY MIS-REPORT RAIN FOR SNOW...
$$

 *****  OTHER OBSERVATIONS SOUTHEAST NORTH DAKOTA *****

CITY           SKY/WX    TMP DP  RH WIND       PRES   REMARKS
COOPERSTOWN    NOT AVBL
VALLEY CITY    CLOUDY    66  66 100 S9        29.87S
OAKES          LGT RAIN  64  64 100 E3        29.87S
GWINNER        MOCLDY    66  66 100 SE8       29.88S
SHEYENNE NWR     N/A     65  64  96 SE7       29.95S
BUFFALO          N/A     66  63  89 CALM        N/A
WYNDMERE       NOT AVBL
 ***** THE ABOVE OBSERVATIONS ARE NON NWS ARE NOT QUALITY
       CONTROLLED AND MAY MIS-REPORT RAIN FOR SNOW...
$$

  *****  WEATHER ACROSS NORTHERN MINNESOTA  *****

CITY           SKY/WX    TMP DP  RH WIND       PRES   REMARKS
FLAG ISLAND    CLOUDY    68  64  88 S10       29.86F
WARROAD          N/A     68  64  88 S5        29.88S
ROSEAU         MOCLDY    70  63  78 S8        29.87S
HALLOCK        MOCLDY    70  64  83 S14       29.83S
THF RVR FALLS  CLOUDY    66  61  82 S8        29.89R
HALSTAD          N/A     65  63  93 S3          N/A
FOSSTON        CLOUDY    64  57  77 S7        29.91S
BAUDETTE       CLOUDY    67  62  84 S3        29.90S
WASKISH        CLOUDY    66  63  88 CALM      29.91F
CROOKSTON      CLOUDY    70  63  78 S12       29.88S
$$
  *****  WEATHER ACROSS CENTRAL AND WEST MINNESOTA  *****

CITY           SKY/WX    TMP DP  RH WIND       PRES   REMARKS
BEMIDJI        CLOUDY    65  61  87 S9        29.93S
PARK RAPIDS    LGT RAIN  65  63  93 SE8       29.93F
WADENA         LGT RAIN  63  63 100 SE9       29.92F
DETROIT LAKES  DRIZZLE   64  63  94 SE8       29.92S
MOORHEAD       DRIZZLE   66  66 100 SE5       29.89S
FERGUS FALLS   CLOUDY    64  64 100 SE7       29.89F
ELBOW LAKE     DRIZZLE   64  64  97 E6        29.89F
MORRIS MN      DRIZZLE   66  64  94 E5        29.87F
STAPLES        DRIZZLE   63  63 100 SE3       29.94S
WHEATON        CLOUDY    63  63 100 E6        29.89F
$$
  *****  WEATHER ELSEWHERE ACROSS MINNESOTA  *****

CITY           SKY/WX    TMP DP  RH WIND       PRES   REMARKS
DULUTH         CLOUDY    61  53  75 E8        30.00S
INTRNTL FALLS  CLOUDY    66  59  78 CALM      29.93S
ELY            DRIZZLE   61  54  77 S7        29.99S
CLOQUET        CLOUDY    61  54  77 E3        29.99F
BRAINERD       LGT RAIN  64  62  93 SE5       29.96S
HIBBING        CLOUDY    65  57  75 SE7       29.98S
ALEXANDRIA     LGT RAIN  64  63  96 SE12      29.92F FOG
SAINT CLOUD    CLOUDY    68  64  87 E7        29.92F
MINNEAPOLIS    CLOUDY    67  64  90 E13       29.93F
$$

  *****  WEATHER ACROSS SOUTH DAKOTA  *****

CITY           SKY/WX    TMP DP  RH WIND       PRES   REMARKS
SIOUX FALLS    CLOUDY    71  69  93 E9        29.84R THUNDER FOG
BROOKINGS      NOT AVBL
WATERTOWN      CLOUDY    65  64  97 E7        29.87R FOG
HURON          CLOUDY    69  68  96 NE7       29.81F
SISSETON         N/A     66  65  96 SE7       29.86F
ABERDEEN       RAIN      65  65 100 E12       29.85F FOG
MITCHELL       MOCLDY    71  70  96 SE3       29.82R
PIERRE         CLOUDY    70  68  93 N5        29.83F
MOBRIDGE       MOCLDY    65  65 100 NE5       29.84S
RAPID CITY     CLOUDY    68  61  78 SE5       29.93R
$$

  *****  SOME WEATHER IN NEARBY STATES *****

CITY           SKY/WX    TMP DP  RH WIND       PRES   REMARKS
GLASGOW MT     CLEAR     76  56  49 N10       29.81S
GREAT FALLS MT MOCLDY    76  48  37 N7        29.91R
CHEYENNE WY    PTCLDY    61  48  62 SE3       30.14S
SCOTTSBLUFF NE MOCLDY    61  53  75 W6        30.00F
OMAHA NE       MOCLDY    77  72  84 SE7       29.85R
DES MOINES IA  CLOUDY    74  71  91 SE12      29.90S THUNDER
DAVENPORT IA   CLOUDY    69  67  93 SE12      29.97R
CHICAGO IL     LGT RAIN  71  61  70 E8        30.06R
EAU CLAIRE WI  LGT RAIN  65  64  97 E8        29.98F
LA CROSSE WI   LGT RAIN  67  64  90 SE7       29.96S
$$

  *****  SOME NATIONAL WEATHER *****

CITY           SKY/WX    TMP DP  RH WIND       PRES   REMARKS
LA GUARDIA NY  PTCLDY    71  50  47 NW17G30   30.02R
RALEIGH NC     PTCLDY    78  72  81 CALM      30.01R
ATLANTA GA     PTCLDY    82  56  40 CALM      30.03R
NEW ORLEANS LA PTCLDY    83  72  69 SE7       29.94R
OKLAHOMA CITY  LGT RAIN  70  66  87 S9        29.88F
ALBUQUERQUE NM PTCLDY    78  38  23 NW12      30.11R
SALT LAKE CITY PTCLDY    79  36  21 W7        30.09S
LOS ANGELES CA PTCLDY    80  45  28 W14       29.87S
BOISE ID       CLEAR     87  39  18 CALM      29.93F
SEATTLE WA     MOCLDY    72  59  63 SW5       30.05F
$$

*** WEATHER ACROSS MANITOBA...SASKATCHEWAN AND ONTARIO ***
                ***ONTARIO***

CITY           SKY/WX    TMP DP  RH WIND       PRES   REMARKS
GERALDTON      MOCLDY    57  46  67 S7        30.01F
THUNDER BAY    MOCLDY    57  52  82 CALM      30.02R
SIOUX LOOKOUT  MOCLDY    66  57  72 S9        29.90S
TORONTO        CLEAR     61  45  55 N10       30.15R
BIG TROUT LK     N/A    N/A N/A N/A MISG        N/A
PICKLE LAKE    PTCLDY    64  52  63 S8        29.86S
DRYDEN         CLOUDY    66  59  77 S7        29.90S
KENORA         MOCLDY    68  61  77 S12G21    29.88F
$$
                *** MANITOBA***

CITY           SKY/WX    TMP DP  RH WIND       PRES   REMARKS
BRANDON        PTCLDY    73  63  68 S10       29.74F
DAUPHIN        LGT RAIN  68  64  88 N3        29.72R
ISLAND LAKE    NOT AVBL
PILOT MOUND      N/A     70  64  83 S9          N/A
THE PAS        CLOUDY    61  59  94 CALM      29.75
THOMPSON       PTCLDY    57  55  94 W3        29.68S
WINNIPEG       MOCLDY    72  66  83 S16G26    29.78R
LYNN LAKE      CLOUDY    57  45  62 MISG      29.73R
CHURCHILL      MOCLDY    57  52  82 W8        29.56S
GILLAM         MOCLDY    59  55  88 CALM      29.64F
$$
                ***SASKATCHEWAN***

CITY           SKY/WX    TMP DP  RH WIND       PRES   REMARKS
ESTEVAN        PTCLDY    70  61  73 NW7       29.74
KINDERSLEY     MOCLDY    57  55  94 W6        29.96F
LLOYDMINSTER   PTCLDY    59  45  58 NW3       29.95R
PRINCE ALBERT  CLOUDY    59  57  94 W6        29.87R
REGINA         MOCLDY    68  55  64 N13       29.82R


USA.gov is the U.S. government's official web portal to all federal, state and local government web resources and services.